98P/Takamizawa (2021)

Japanese version
Home page
Updated on November 3, 2020

---------------------------------------------------------------------

* Profile

* Orbital Elements

Epoch 2020 Dec. 17.0 TT = JDT 2459200.5
T 2021 Jan. 4.93232 TT                                  MPC
q   1.6630117            (2000.0)            P               Q
n   0.13310318     Peri.  157.92224     +0.05173404     +0.98468262
a   3.7990682      Node   114.71141     -0.94147434     +0.10369890
e   0.5622580      Incl.   10.56140     -0.33309105     -0.14016663
P   7.40
From 92 observations 1998 Mar. 2-2013 Apr. 23, mean residual 0".8.
     Nongravitational parameters A1 = +0.64, A2 = +0.0428.

* Magnitudes Graph

        m1 = 7.0 + 5 log d + 36.0 log r(t - 45)

---------------------------------------------------------------------

The orbital elements are published on M.P.E.C. 2013-H38.
The magnitudes graphs are made with Comet for Windows.

---------------------------------------------------------------------

Copyright(C) Seiichi Yoshida (comet@aerith.net). All rights reserved.